Regional Weather Roundup
Issued by NWS

Home | Current Version | Previous Version | Text Only | Print | Product List | Glossary Off
Versions: 1 2 3 4 5 6 7 8 9 10 11 12 13 14 15 16 17 18 19 20 21 22 23 24 25 26 27 28 29 30 31 32 33 34 35 36 37 38 39 40 41 42 43 44 45 46 47 48 49 50

000
ASUS43 KFSD 220310
RWRSD

WEATHER ROUNDUP FOR SOUTH DAKOTA
NATIONAL WEATHER SERVICE SIOUX FALLS SD
1000 PM CDT MON JUL 21 2014

NOTE: "FAIR" INDICATES FEW OR NO CLOUDS BELOW 12,000 FEET WITH NO
SIGNIFICANT WEATHER AND/OR OBSTRUCTIONS TO VISIBILITY.


SDZ001>005-009-010-012>017-220400-
NORTHWEST AND NORTH CENTRAL SOUTH DAKOTA

CITY           SKY/WX    TMP DP  RH WIND       PRES   REMARKS
BUFFALO          N/A     71  62  73 N14       29.94R
FAITH            N/A     73  64  73 N22       29.92R
MOBRIDGE       CLEAR     69  65  86 NW14      29.83R
$$

SDZ012>016-024>037-041>051-057-063-072>074-220400-
SOUTHWEST AND SOUTH CENTRAL SOUTH DAKOTA

CITY           SKY/WX    TMP DP  RH WIND       PRES   REMARKS
RAPID CTY ARPT PTCLDY    76  56  49 N13       29.95R
PIERRE         CLEAR     83  70  64 N14       29.81R
CUSTER         CLEAR     73  47  39 NE6       30.12R
ELLSWORTH AFB  PTCLDY    83  56  39 N12       29.96R
PHILIP         CLEAR     81  58  45 N13       29.87R
PINE RIDGE     CLEAR     82  53  36 S15       29.92R
WINNER         FAIR      92  58  31 NW3       29.83R
$$

SDZ004>011-016>023-039-040-220400-
NORTHEAST SOUTH DAKOTA

CITY           SKY/WX    TMP DP  RH WIND       PRES   REMARKS
ABERDEEN       MOCLDY    72  65  78 N16       29.80R
WATERTOWN      CLEAR     79  76  90 SW12      29.77R
SISSETON         N/A     75  62  64 NW33G67   29.73R
$$

SDZ017-020-022-023-036>040-048>070-220400-
SOUTHEAST SOUTH DAKOTA

CITY           SKY/WX    TMP DP  RH WIND       PRES   REMARKS
SIOUX FALLS    PTCLDY    84  77  79 S13       29.78R
HURON          CLEAR     81  68  64 NW5       29.76R
CHAMBERLAIN    CLEAR     85  61  43 N6        29.80R
MITCHELL       CLEAR     84  79  85 S6        29.76R HX  96
YANKTON        MOCLDY    82  79  89 S7        29.78R
$$

ABBREVIATIONS USED IN REMARKS
   TC - TEMPERATURE IN CELSIUS
  WCI - WIND CHILL INDEX
   HX - HEAT INDEX
  VSB - VISIBILITY



USA.gov is the U.S. government's official web portal to all federal, state and local government web resources and services.